Hourly Data Report for April 14, 2020

CLYDE RIVER A
NUNAVUT
Current Station Operator: NAVCAN

70°29'09.000" N
68°31'01.000" W
26.50 m
2400804
71090
YCY

Download Data

Hourly Data (April 2020)
Hourly Data Report for April 14, 2020
TIME
LST
Temp Definition
°C
Dew Point Definition
°C
Rel Hum Definition
%
Precip. Amount Definition
mm

Wind Dir Definition
10's deg

Wind Spd Definition
km/h
Visibility Definition
km
Stn Press Definition
kPa
Hmdx Definition


Wind Chill Definition


Weather Definition


00:00 -11.5 -13.5 85 0.0 29 17 16.1 99.73   -19 Snow
01:00 -11.9 -13.7 87 0.0 24 8 16.1 99.78   -17 Snow
02:00 -12.0 -13.7 87 0.0 26 13 16.1 99.84   -19 LegendNANA
03:00 -12.0 -13.2 91 0.0 26 8 16.1 99.90   -17 LegendNANA
04:00 -12.1 -13.2 92 0.0 26 5 16.1 99.92   -15 LegendNANA
05:00 -13.7 -14.8 92 0.0   0 16.1 99.95     LegendNANA
06:00 -14.8 -16.0 91 0.0   0 16.1 100.00     LegendNANA
07:00 -17.2 -18.4 90 0.0 22 8 16.1 100.07   -23 LegendNANA
08:00 -15.8 -17.6 86 0.0 27 5 16.1 100.10   -20 LegendNANA
09:00 -14.2 -16.0 86 0.0 23 4 16.1 100.13   -17 LegendNANA
10:00 -14.0 -15.6 88 0.0 19 4 16.1 100.16   -17 LegendNANA
11:00 -12.0 -14.5 82 0.0 23 4 16.1 100.17   -15 LegendNANA
12:00 -11.2 -13.1 86 0.0 23 8 16.1 100.20   -16 LegendNANA
13:00 -10.7 -13.1 83 0.0 22 5 16.1 100.23   -14 LegendNANA
14:00 -11.8 -13.6 87 0.0 21 4 16.1 100.26   -14 LegendNANA
15:00 -11.9 -13.5 88 0.0   0 16.1 100.28     LegendNANA
16:00 -12.9 -14.1 91 0.0 4 4 16.1 100.30   -16 LegendNANA
17:00 -14.2 -15.1 93 0.0 2 5 16.1 100.33   -18 LegendNANA
18:00 -16.2 -17.2 92 0.0 31 8 16.1 100.35   -22 LegendNANA
19:00 -17.8 -19.2 89 0.0 31 8 16.1 100.38   -24 LegendNANA
20:00 -17.6 -18.6 92 0.0 27 5 16.1 100.43   -22 LegendNANA
21:00 -19.1 -20.4 90 0.0 27 5 16.1 100.44   -23 LegendNANA
22:00 -19.2 -20.7 88 0.0 28 5 16.1 100.43   -23 LegendNANA
23:00 -21.2 -23.0 86 0.0 30 5 16.1 100.43   -26 LegendNANA

Notes on Data Quality.

Legend

  • E = Estimated
  • M = Missing
  • NA = Not Available*
  • [empty] = Indicates an unobserved value
Date modified: